Tracking 19246 objects as of 19-Aug-2018
HD Live streaming from Space Station
objects crossing your sky now

FENGYUN 1C DEB

Track FENGYUN 1C DEB now!
10-day predictions


NORAD ID: 30023
Int'l Code: 1999-025MY
Perigee: 838.9 km
Apogee: 908.5 km
Inclination: 99.1 °
Period: 102.3 minutes
Semi major axis: 7244 km
RCS: 0.053 m2 (small)
Launch date: May 10, 1999
Source: People's Republic of China (PRC)
Launch site: Taiyaun Space Center, China (TSC)

Note: This is SATELLITE DEBRIS
aabbcc
Your satellite tracking list
Your tracking list is empty




NASA's NSSDC Master Catalog

Two Line Element Set (TLE):
1 30023U 99025MY  18231.29292752 +.00000108 +00000-0 +89704-4 0  9997
2 30023 099.0637 336.1724 0048015 316.3765 100.6213 14.07910919595620
Source of the keplerian elements: AFSPC